RH
31 31 29 32 36 34 38 42 47 47 53 56 62 60 60 56 55 56 63 54 59 86 90 95 97 97 96 95 92 95 94 97 88 86 90 88 76 76 73 67 66 70 68
25 27 29 34 39 39 42 45 46 50 53 56 58 67 73 70 65 74 74 63 53 84 92 94 97 96 97 96 95 95 97 95 93 96 90 98 96 79 70 72 68 68 73
24 23 26 31 38 41 47 48 49 50 51 52 59 63 69 73 81 74 68 68 62 64 82 92 93 95 92 94 91 93 92 93 94 89 92 98 96 96 81 71 65 69 72
24 25 26 29 36 44 52 51 50 54 50 52 56 59 67 79 74 69 72 72 64 67 77 88 91 93 93 92 92 91 87 87 97 94 89 85 84 93 99 94 84 73 66
30 31 32 32 33 43 56 55 53 54 53 54 56 61 63 73 79 72 73 66 76 67 70 79 89 93 92 87 90 90 88 80 85 88 95 92 91 83 86 94 93 83 76
38 43 39 35 36 48 56 58 55 55 51 53 55 60 66 67 75 82 81 75 73 81 80 86 89 89 89 89 89 88 91 89 82 89 88 86 86 84 83 86 82 81 71
46 53 55 53 54 58 60 56 54 56 56 57 59 62 67 68 70 75 76 74 72 81 90 84 90 91 91 89 85 88 89 89 92 90 88 86 84 79 77 76 76 75 64
48 56 60 60 58 59 56 55 59 60 59 60 64 66 67 67 67 73 82 78 72 69 77 90 89 90 92 91 91 89 90 90 95 94 93 92 93 91 89 89 85 89 75
49 53 56 59 60 59 56 58 59 59 59 63 68 69 72 74 77 74 81 86 78 71 75 82 86 92 93 92 93 95 90 89 93 95 93 90 95 94 92 86 83 85 90
45 47 50 54 55 61 62 60 59 60 60 62 63 66 73 77 84 81 80 85 85 84 87 86 84 89 92 93 95 96 95 93 95 93 93 91 93 94 93 93 90 88 87
46 51 54 50 54 59 59 64 62 62 64 62 63 66 72 77 83 90 88 87 81 86 88 86 89 91 90 88 94 96 96 97 96 95 94 96 92 94 95 96 95 94 89
42 41 44 45 45 48 51 53 59 63 64 62 64 70 69 75 85 92 96 92 85 80 82 88 91 89 89 91 92 96 97 98 98 97 96 96 94 97 95 95 94 92 90
36 34 35 41 42 40 42 46 50 57 66 69 69 73 72 80 84 89 93 90 92 89 89 88 89 92 92 94 93 95 96 96 96 97 96 96 94 96 94 94 92 90 80
32 28 27 26 27 30 35 36 42 54 63 72 75 78 79 84 87 87 96 95 92 91 90 92 94 95 96 96 95 96 97 97 96 96 94 94 94 94 94 91 90 84 85
34 32 30 28 30 34 38 38 45 57 61 72 78 82 83 87 91 95 97 96 96 97 98 99 97 97 97 98 97 97 96 94 94 92 91 91 91 90 86 84 82 79 82
34 32 31 32 36 37 37 40 47 55 64 70 81 81 86 91 94 95 96 94 94 96 97 98 98 99 98 96 94 93 93 91 91 94 94 92 90 82 73 70 66 64 68
32 34 35 38 40 40 36 46 47 51 60 70 78 83 88 93 95 95 96 95 96 95 96 96 96 97 96 95 94 92 91 92 92 93 90 84 78 74 68 73 74 73 66
37 36 37 38 35 36 40 43 46 50 61 69 78 85 91 93 95 95 95 95 94 96 96 97 97 97 96 92 92 92 90 92 92 90 86 86 86 81 77 73 79 80 77
36 34 32 32 32 35 38 43 46 52 60 67 81 88 92 94 97 96 93 93 94 96 97 96 97 95 94 90 91 90 92 96 97 93 92 90 93 90 83 79 86 90 84
33 35 34 35 35 34 37 42 48 54 57 64 84 89 92 95 98 94 91 94 93 95 94 96 94 91 93 90 90 87 90 98 98 98 97 97 96 84 78 85 84 86 87
37 37 38 38 39 37 39 47 51 54 56 67 84 91 92 94 96 95 93 94 94 94 96 97 97 94 91 92 89 88 94 96 96 96 97 89 81 82 76 70 74 78 67
42 40 42 43 41 41 42 46 49 50 53 60 86 93 96 94 95 97 96 97 97 97 98 98 98 97 96 94 94 96 97 95 93 93 86 81 78 75 69 70 73 69 66
42 41 44 45 43 42 42 46 46 48 52 57 86 94 96 95 97 98 98 97 97 97 98 97 97 98 98 97 96 96 94 80 88 92 96 92 74 72 73 73 70 64 70
46 45 47 49 49 46 45 45 44 45 52 65 94 98 99 98 98 97 96 98 97 97 97 97 97 97 98 98 97 95 94 94 96 91 76 74 75 75 74 68 62 63 69
49 50 54 56 54 48 47 45 45 46 56 65 99 100 99 99 99 99 98 98 97 96 96 97 96 96 97 97 96 94 88 85 77 80 81 81 80 76 71 70 72 74 73
57 58 57 55 54 51 51 49 47 49 54 65 96 99 100 100 100 100 100 97 96 97 97 97 96 96 96 96 92 80 77 76 76 82 85 84 80 77 76 80 76 75 77
Wind_Speed
8 4 4 4 4 6 7 9 10 10 8 7 8 8 8 6 6 3 9 8 6 8 7 5 6 6 6 4 5 3 9 5 6 6 5 5 7 5 6 5 6 6 4
8 6 6 5 5 5 8 9 9 10 9 7 7 6 7 7 8 5 8 11 8 7 6 7 7 8 6 8 8 8 3 3 8 4 2 4 3 3 5 4 4 6 3
9 10 9 7 6 7 8 8 9 9 9 10 7 7 5 5 3 6 6 6 9 6 8 8 7 8 8 9 12 11 11 5 6 6 4 3 4 4 0 2 2 3 3
12 11 11 11 10 8 7 8 9 10 9 10 9 12 8 8 7 6 6 6 8 7 8 8 8 8 7 9 8 6 9 6 8 3 1 2 6 4 4 1 0 2 3
12 13 13 12 11 8 8 8 10 11 12 11 10 9 10 7 5 6 8 7 4 6 7 9 8 9 8 10 10 10 11 10 9 8 3 1 2 2 4 4 4 1 3
13 13 13 12 11 9 9 10 11 12 13 12 12 12 13 12 9 6 6 5 5 4 8 6 6 8 9 10 10 12 12 8 8 8 7 6 4 4 3 3 5 5 5
13 13 14 13 12 12 12 12 14 14 14 14 13 12 13 14 13 11 6 6 5 6 6 9 7 6 8 9 10 10 9 9 7 11 7 3 3 3 2 3 3 3 3
12 13 14 14 14 15 15 15 15 15 14 14 14 12 13 8 9 11 7 6 5 6 9 7 7 7 6 7 8 8 8 10 8 9 8 6 4 4 3 4 5 2 2
12 12 12 11 12 13 15 16 16 15 15 14 12 11 10 10 10 12 10 5 6 7 7 8 9 8 7 8 8 5 9 9 8 9 10 7 5 4 5 4 6 6 4
12 12 11 12 12 12 11 15 15 15 16 15 13 10 10 10 11 12 12 8 6 6 5 6 7 8 8 8 8 6 6 9 7 8 10 9 6 6 5 4 3 3 3
10 11 11 11 9 10 11 12 14 15 14 14 13 15 12 12 12 12 10 8 6 6 7 6 6 8 8 9 8 7 8 10 7 8 10 8 9 7 6 4 3 3 3
10 10 9 10 11 11 12 13 14 14 13 13 13 14 15 13 12 11 5 6 6 6 8 7 7 7 7 8 8 8 7 8 9 9 9 9 7 9 7 5 5 5 5
12 11 11 11 12 13 13 13 13 13 12 14 14 15 14 12 13 12 6 6 6 6 4 3 7 7 7 7 8 7 7 8 9 9 10 10 11 7 6 6 6 5 5
10 12 13 14 15 14 13 14 14 13 13 12 13 14 14 13 12 11 8 5 5 6 6 7 7 7 7 7 7 7 6 6 6 6 7 9 10 12 10 7 7 7 5
12 13 15 16 16 14 14 14 14 13 13 13 13 13 13 13 12 8 5 3 3 4 4 4 4 4 6 5 7 6 7 9 9 8 8 6 9 14 11 8 7 8 5
13 15 19 18 16 16 16 15 14 13 13 12 12 12 12 12 10 7 5 3 2 2 1 1 4 5 2 9 12 11 9 9 10 11 11 11 15 16 16 18 11 8 8
15 18 20 16 15 15 17 15 15 14 13 12 11 12 11 11 8 7 5 3 1 0 1 3 3 4 4 12 15 16 9 9 9 11 12 11 10 15 13 22 22 19 16
19 20 17 17 17 16 17 14 14 14 13 13 11 10 10 11 7 6 4 2 1 1 2 3 4 5 5 15 18 20 12 12 12 11 12 14 13 12 13 12 14 12 9
19 18 18 19 18 18 16 14 15 14 13 12 10 10 9 11 6 5 3 0 2 2 2 3 6 8 9 18 22 18 13 14 12 11 11 13 13 18 19 14 13 11 10
18 18 20 19 18 17 16 16 15 14 13 12 10 9 9 9 5 3 1 1 3 4 4 6 7 14 11 18 20 18 12 14 11 10 12 17 14 20 19 11 11 12 9
22 20 19 17 18 17 16 16 15 14 12 11 9 8 8 9 4 1 2 3 6 7 8 9 8 9 10 13 19 21 11 11 10 8 8 9 19 17 15 13 8 11 9
21 21 17 16 17 16 15 16 15 13 13 12 7 7 7 6 3 3 3 5 7 8 8 8 7 6 8 15 19 21 19 18 12 10 8 11 18 16 15 11 18 17 12
18 18 17 18 17 16 15 16 14 14 13 13 7 6 6 5 2 3 5 5 6 6 7 6 6 6 6 8 23 24 23 21 12 9 14 20 18 18 16 18 16 11 4
17 16 18 18 17 16 16 16 15 14 13 13 6 4 5 4 3 3 4 5 5 6 6 7 7 7 7 8 8 9 11 18 12 18 13 14 14 14 14 10 7 4 4
16 16 16 17 18 17 16 15 15 13 12 11 4 4 3 3 2 3 3 4 3 5 7 7 7 8 8 7 12 12 9 9 13 13 9 8 7 7 6 5 6 5 4
18 17 17 17 17 16 16 15 14 12 12 11 4 3 3 2 3 3 4 7 9 12 12 13 9 7 13 21 20 20 21 22 22 9 8 7 6 6 5 5 5 4 5
Wind_Direction
115 98 64 19 356 360 353 349 344 343 336 337 331 330 317 315 300 270 289 254 230 178 204 183 168 170 158 155 134 113 140 114 137 118 98 61 23 29 16 18 94 82 66
108 57 23 9 4 350 0 349 350 345 336 330 327 317 308 304 316 295 283 279 232 146 185 187 178 177 160 151 168 149 163 104 178 143 152 135 83 6 54 5 60 118 109
57 34 17 6 351 356 355 350 349 346 341 336 318 307 300 273 243 286 264 252 270 189 198 189 183 181 183 178 183 173 177 170 199 197 151 150 157 145 107 128 110 106 106
15 7 355 355 347 351 350 346 346 340 337 336 324 314 311 298 298 296 306 290 246 235 205 196 183 184 178 182 184 190 188 162 181 211 322 306 130 167 151 172 316 110 146
11 5 356 346 337 350 346 347 343 340 337 330 324 312 300 283 259 283 272 262 287 265 246 213 190 186 184 192 192 192 201 188 182 199 155 176 78 130 133 154 176 200 207
13 9 359 352 351 359 352 343 339 336 333 328 321 313 303 294 290 244 258 263 241 236 233 221 216 191 191 188 188 187 202 200 191 198 186 179 176 176 145 123 152 164 173
16 10 8 8 7 358 350 343 340 334 336 330 324 317 307 299 284 282 269 261 231 224 221 217 216 214 188 188 196 202 195 198 201 189 193 177 142 113 109 100 119 159 134
14 12 8 3 357 353 350 344 339 335 336 336 329 320 311 301 289 282 272 270 278 237 213 209 209 203 193 195 194 191 195 204 195 181 166 163 146 112 117 129 130 82 154
5 6 3 359 354 346 350 345 338 335 337 336 328 317 318 311 304 291 265 260 269 255 256 200 202 197 196 200 202 198 191 196 186 179 179 179 156 151 142 149 158 134 155
6 4 358 354 355 355 348 341 338 338 338 335 326 321 309 300 291 289 279 249 248 246 229 219 205 197 191 189 190 195 201 198 189 187 180 179 160 150 162 144 87 117 139
4 5 360 352 351 336 342 342 336 340 338 337 331 321 317 308 298 276 267 260 236 232 220 215 199 198 200 198 191 193 192 198 193 183 185 168 153 152 141 134 139 118 116
356 346 349 351 352 348 335 340 329 335 336 330 331 321 314 313 305 298 251 256 269 239 221 200 203 209 192 193 194 190 186 183 176 179 175 163 151 147 143 133 130 146 115
335 337 344 343 341 338 337 333 333 330 325 327 329 324 316 313 306 304 271 248 240 232 247 219 195 195 194 188 189 186 186 179 173 171 171 162 148 133 130 131 132 121 117
339 343 340 334 333 332 331 327 328 327 326 326 324 323 321 312 300 295 274 248 245 242 234 211 198 192 188 184 180 174 174 160 154 162 163 157 160 145 145 138 128 123 122
318 330 333 329 328 328 325 323 322 324 325 323 322 321 319 314 314 295 309 310 270 243 224 200 195 180 175 167 162 151 136 124 107 95 95 97 114 126 135 130 131 126 120
313 327 325 327 325 325 322 319 318 320 319 317 320 320 321 322 322 319 327 329 351 351 347 176 161 148 146 165 155 138 131 126 124 117 107 105 106 111 115 112 117 113 128
328 322 320 320 317 317 318 314 314 318 317 314 319 319 321 322 317 321 319 316 349 62 124 123 125 122 122 157 143 132 121 120 121 124 120 113 110 105 101 92 87 79 78
321 316 315 314 313 315 308 308 316 312 312 311 314 314 319 318 318 311 313 319 30 95 149 130 129 121 142 145 135 124 114 110 109 114 117 114 108 103 101 96 81 78 79
313 310 310 309 310 307 305 317 312 310 310 311 313 312 314 311 303 307 294 316 109 109 110 126 126 129 122 137 135 119 112 106 101 103 109 109 109 123 119 108 107 102 97
313 311 309 307 303 309 312 311 307 307 308 316 314 307 312 310 294 288 240 69 98 93 88 83 102 119 124 134 132 120 117 108 107 106 110 117 123 125 120 119 131 116 108
311 311 307 303 307 309 310 302 299 304 312 314 310 304 316 313 286 224 113 112 101 95 87 86 89 100 119 132 130 121 114 115 115 110 115 121 118 122 126 119 110 117 125
312 310 306 305 308 307 302 299 301 305 311 312 306 303 316 310 275 149 110 103 106 101 97 97 96 104 118 126 123 116 113 118 112 113 114 122 120 121 115 107 122 125 120
308 309 307 306 306 304 304 300 303 306 307 309 302 304 311 299 251 144 129 124 120 121 118 114 109 102 104 114 119 116 117 119 106 110 121 127 126 116 110 118 119 114 110
309 311 308 305 305 306 302 298 303 303 303 306 287 297 293 278 232 131 142 146 146 138 136 131 123 118 117 117 118 114 115 113 112 123 119 121 115 113 114 107 95 88 91
310 309 306 300 298 299 300 299 299 300 299 302 270 279 276 255 191 132 157 156 149 152 143 138 135 136 134 136 128 127 124 126 126 120 114 111 108 110 110 104 102 97 90
307 303 301 299 300 300 298 297 296 295 296 297 270 250 240 212 174 143 113 121 134 135 130 133 137 132 133 135 134 135 132 132 132 121 125 126 125 128 130 126 117 104 107